Weather History for Du Bois, PA

Change the Weather History Date:

Friday, November 21, 2014

  Actual Average Record
Temperature  
Mean Temperature 19 °F 37 °F  
Max Temperature 24 °F 44 °F 62 °F (1991)
Min Temperature 13 °F 30 °F 12 °F (1964)
Degree Days  
Heating Degree Days 46 28  
Month to date heating degree days 618 506  
Since 1 July heating degree days 1271 1249  
Cooling Degree Days 0 0  
Month to date cooling degree days 0 0  
Year to date cooling degree days 412 362  
Moisture  
Dew Point 11 °F    
Average Humidity 73    
Maximum Humidity 88    
Minimum Humidity 57    
Precipitation  
Precipitation T in 0.13 in 0.55 in (1992)
Month to date precipitation 1.29 2.56  
Sea Level Pressure  
Sea Level Pressure 30.29 in    
Wind  
Wind Speed 9 mph (West)    
Max Wind Speed 18 mph    
Max Gust Speed 24 mph    
Visibility 8 miles    
Events Snow    
T = Trace of Precipitation, MM = Missing Value Source: NWS Daily Summary

Daily Weather History Graph

Daily Weather History Graph

Search for Another Location

Airport:

Trip Planner

Search our weather history database for the weather conditions in past years. The results will help you decide how hot, cold, wet, or windy it might be!

Date:

Astronomy

Nov. 21, 2014 Rise Set
Actual Time 7:10 AM EST 4:52 PM EST
Civil Twilight 6:40 AM EST 5:22 PM EST
Nautical Twilight 6:06 AM EST 5:55 PM EST
Astronomical Twilight 5:33 AM EST 6:28 PM EST
Moon 6:03 AM EST (11/21) 4:35 PM EST (11/21)
Length of Visible Light 10h 41m
Length of Day
9h 41m
Waning Crescent, 1% of the Moon is Illuminated
Nov 21
Waning Crescent
Nov 22
New
Nov 29
First Quarter
Dec 6
Full
Dec 14
Last Quarter

Hourly Weather History & Observations

Time (EST) Temp. Windchill Dew Point Humidity Pressure Visibility Wind Dir Wind Speed Gust Speed Precip Events Conditions
12:20 AM 19.0 °F 5.0 °F 10.9 °F 71% 30.02 in 4.0 mi WSW 15.0 mph - 0.00 in Snow Light Snow
12:53 AM 19.0 °F 6.1 °F 10.9 °F 71% 30.11 in 9.0 mi West 12.7 mph - 0.00 in   Overcast
1:18 AM 19.0 °F 4.0 °F 12.0 °F 74% 30.04 in 2.0 mi West 17.3 mph 23.0 mph 0.00 in Snow Light Snow
1:29 AM 19.0 °F 6.1 °F 12.0 °F 74% 30.04 in 4.0 mi West 12.7 mph - 0.00 in Snow Light Snow
1:53 AM 19.0 °F 4.5 °F 12.0 °F 74% 30.13 in 2.5 mi WSW 16.1 mph - 0.00 in Snow Light Snow
2:00 AM 19.0 °F 5.0 °F 12.0 °F 74% 30.05 in 4.0 mi West 15.0 mph - 0.00 in Snow Light Snow
2:32 AM 18.0 °F 4.2 °F 12.9 °F 81% 30.07 in 1.8 mi West 13.8 mph 20.7 mph 0.00 in Snow Light Snow
2:53 AM 18.0 °F 5.4 °F 14.0 °F 84% 30.16 in 1.5 mi West 11.5 mph - 0.00 in Snow Light Snow
3:07 AM 17.1 °F 3.6 °F 14.0 °F 88% 30.08 in 3.0 mi West 12.7 mph - 0.00 in Snow Light Snow
3:15 AM 17.1 °F 5.0 °F 12.9 °F 84% 30.08 in 5.0 mi West 10.4 mph - 0.00 in   Overcast
3:53 AM 17.1 °F 5.8 °F 12.9 °F 84% 30.18 in 9.0 mi West 9.2 mph - 0.00 in   Overcast
4:53 AM 17.1 °F 3.0 °F 12.0 °F 81% 30.22 in 10.0 mi West 13.8 mph - N/A   Mostly Cloudy
5:02 AM 16.0 °F 3.6 °F 12.0 °F 84% 30.14 in 10.0 mi West 10.4 mph - N/A   Scattered Clouds
5:12 AM 17.1 °F 5.0 °F 12.0 °F 81% 30.15 in 10.0 mi West 10.4 mph - N/A   Mostly Cloudy
5:53 AM 17.1 °F 3.0 °F 12.0 °F 81% 30.26 in 10.0 mi West 13.8 mph - N/A   Overcast
6:17 AM 17.1 °F 3.6 °F 12.9 °F 84% 30.19 in 9.0 mi West 12.7 mph 19.6 mph N/A   Overcast
6:39 AM 17.1 °F 5.0 °F 12.9 °F 84% 30.20 in 6.0 mi West 10.4 mph - N/A   Overcast
6:49 AM 17.6 °F 5.0 °F 12.2 °F 79% 30.21 in 8.0 mi West 11.5 mph 20.7 mph N/A   Overcast
6:53 AM 17.1 °F 3.0 °F 12.9 °F 84% 30.30 in 9.0 mi WNW 13.8 mph - N/A   Overcast
7:46 AM 16.0 °F 2.3 °F 12.9 °F 88% 30.25 in 5.0 mi WSW 12.7 mph - N/A   Overcast
7:53 AM 16.0 °F 4.4 °F 12.9 °F 88% 30.35 in 6.0 mi West 9.2 mph - N/A   Overcast
8:24 AM 17.1 °F 5.0 °F 14.0 °F 88% 30.27 in 5.0 mi West 10.4 mph - N/A   Overcast
8:53 AM 18.0 °F 5.4 °F 14.0 °F 84% 30.38 in 7.0 mi West 11.5 mph - N/A   Mostly Cloudy
9:49 AM 19.4 °F 7.2 °F 12.2 °F 74% 30.32 in 10.0 mi West 11.5 mph - N/A   Mostly Cloudy
9:53 AM 19.0 °F 8.2 °F 12.9 °F 77% 30.41 in 10.0 mi West 9.2 mph - N/A   Mostly Cloudy
10:25 AM 21.0 °F 8.6 °F 12.0 °F 68% 30.33 in 10.0 mi West 12.7 mph - N/A   Scattered Clouds
10:53 AM 21.9 °F 11.7 °F 12.0 °F 66% 30.43 in 10.0 mi WNW 9.2 mph - N/A   Mostly Cloudy
11:53 AM 21.9 °F 10.4 °F 10.9 °F 63% 30.43 in 10.0 mi NW 11.5 mph 20.7 mph N/A   Overcast
12:53 PM 21.9 °F 9.8 °F 10.9 °F 63% 30.44 in 10.0 mi WNW 12.7 mph - N/A   Overcast
1:11 PM 21.9 °F 12.5 °F 10.9 °F 63% 30.35 in 10.0 mi West 8.1 mph - N/A   Overcast
1:53 PM 23.0 °F 11.7 °F 10.9 °F 60% 30.45 in 10.0 mi WSW 11.5 mph - N/A   Overcast
2:53 PM 21.9 °F 10.4 °F 9.0 °F 58% 30.46 in 10.0 mi West 11.5 mph - N/A   Mostly Cloudy
3:53 PM 21.9 °F 11.0 °F 9.0 °F 58% 30.48 in 10.0 mi West 10.4 mph - N/A   Overcast
4:53 PM 19.9 °F 10.1 °F 8.1 °F 60% 30.49 in 10.0 mi West 8.1 mph - N/A   Clear
5:53 PM 18.0 °F 8.7 °F 8.1 °F 65% 30.50 in 10.0 mi West 6.9 mph - N/A   Clear
6:53 PM 16.0 °F - 8.1 °F 71% 30.51 in 10.0 mi Calm Calm - N/A   Clear
7:53 PM 17.1 °F - 8.1 °F 68% 30.50 in 10.0 mi Calm Calm - N/A   Clear
8:53 PM 15.1 °F - 7.0 °F 70% 30.48 in 10.0 mi Calm Calm - N/A   Clear
9:53 PM 16.0 °F 10.4 °F 8.1 °F 71% 30.48 in 10.0 mi South 3.5 mph - N/A   Clear
10:53 PM 15.1 °F - 8.1 °F 74% 30.48 in 10.0 mi Calm Calm - N/A   Clear
11:53 PM 16.0 °F 8.8 °F 8.1 °F 71% 30.46 in 10.0 mi South 4.6 mph - N/A   Clear